Home > Weather > Baton Rouge > Past weeks

Flag for USA Past Weather in Baton Rouge, Louisiana, USA — Yesterday and Last 2 Weeks

Now
85 °F

Partly sunny.


Feels Like: 91 °F
Forecast: 76 / 94 °F
Wind: No wind

Location: Baton Rouge Metropolitan - Ryan Field

Current Time: Jun 25, 2016 at 9:50:34 PM

Latest Report: Jun 25, 2016 at 8:53 PM


Visibility: 10 mi

Pressure: 30.02 "Hg

Humidity: 65%

Dew Point: 72 °F

Location of Baton RougeLocation

Past Weather in Baton Rouge — Graph

°F

Baton Rouge Temperature Yesterday

Maximum temperature yesterday: 93 °F (at 4:53 PM)
Minimum temperature yesterday: 75 °F (at 3:53 AM)
Average temperature yesterday: 84 °F

High & Low Weather Summary for the Past Weeks

 TemperatureHumidityPressure
High96 °F (Jun 25, 2:53 PM)94% (Jun 10, 10:53 PM)30.24 "Hg (Jun 10, 10:53 PM)
Low71 °F (Jun 18, 10:53 AM)38% (Jun 23, 2:53 PM)29.89 "Hg (Jun 17, 7:53 PM)
Average82 °F74%30.04 "Hg
* Reported Jun 10 7:53 PM — Jun 25 7:53 PM, Baton Rouge, Weather by CustomWeather, © 2016

Note: Actual official high and low records may vary slightly from our data, if they occured in-between our weather recording intervals... More about our weather records

Advertising

Baton Rouge Weather History for the Previous 24 Hours

Scroll right to see more
 ConditionsComfort  
Time TempWeatherWind HumidityBarometerVisibility
7:53 PM
Sat, Jun 25
88 °FPartly sunny.No wind57%30.01 "Hg10 mi
6:53 PM94 °FSunny.3 mph44%30.01 "Hg10 mi
5:53 PM93 °FPassing clouds.3 mph46%30.01 "Hg10 mi
4:53 PM94 °FSunny.5 mph44%30.02 "Hg10 mi
3:53 PM95 °FScattered clouds.3 mph44%30.04 "Hg10 mi
2:53 PM96 °FScattered clouds.No wind43%30.06 "Hg10 mi
1:53 PM94 °FScattered clouds.3 mph46%30.07 "Hg10 mi
12:53 PM93 °FPartly sunny.No wind47%30.09 "Hg10 mi
11:56 AM91 °FPartly sunny.5 mph54%30.10 "Hg10 mi
10:53 AM90 °FMostly cloudy.3 mph56%30.11 "Hg10 mi
9:53 AM85 °FMostly cloudy.3 mph70%30.11 "Hg10 mi
8:53 AM84 °FSunny.No wind74%30.12 "Hg10 mi
7:53 AM81 °FSunny.No wind79%30.11 "Hg10 mi
6:53 AM75 °FClear.No wind88%30.10 "Hg10 mi
5:53 AM73 °FClear.No wind90%30.08 "Hg10 mi
4:53 AM74 °FClear.No wind88%30.06 "Hg10 mi
3:53 AM74 °FClear.No wind88%30.06 "Hg10 mi
2:53 AM75 °FClear.No wind85%30.05 "Hg10 mi
1:53 AM76 °FClear.No wind82%30.05 "Hg10 mi
12:53 AM78 °FClear.No wind74%30.05 "Hg10 mi
11:53 PM
Fri, Jun 24
81 °FClear.9 mph65%30.03 "Hg10 mi
10:53 PM82 °FClear.7 mph65%30.03 "Hg10 mi
9:53 PM82 °FClear.7 mph67%30.03 "Hg10 mi
Weather by CustomWeather, © 2016

See weather overviewHow to use our weather pages